Location: Dampvalley
(47.9094°N, 6.1967°E)
Time: 22:05:01
(UTC+00:00)

Envisat - Pass Details

Date: 07 December 2022
Orbit: 763 x 765 km, 98.2° (Epoch: 04 February)

Event Time Altitude Azimuth Distance (km) Brightness Sun altitude
Rises 05:09:27 0° 4° (N) 3,246 6.2 -19.4°
Reaches altitude 10° 05:12:06 10° 351° (N) 2,315 5.3 -18.9°
Enters shadow 05:13:42 17° 337° (NNW) 1,862 4.7 -18.7°
